Location: 01445 Radebeul, Deutschland
(51.1161°N, 13.6224°E)
Time: 15:09:50
(UTC+02:00)

Envisat - Visible Passes

Search period start: 21 May 2018 00:00
Search period end: 31 May 2018 00:00
Orbit: 764 x 766 km, 98.2° (Epoch: 20 May)

Date Brightness Start Highest point End Pass type
(mag) Time Alt. Az. Time Alt. Az. Time Alt. Az.
22 May 5.8 22:01:14 10° WSW 22:03:24 13° W 22:05:35 10° WNW visible
25 May 5.6 21:49:05 10° WSW 21:52:05 16° W 21:55:06 10° NW visible
30 May 5.9 22:05:03 10° WSW 22:06:45 11° W 22:08:26 10° WNW visible
